Weather History for Glens Falls, NY

Change the Weather History Date:

Monday, March 24, 2014

  Actual Average Record
Temperature  
Mean Temperature 19 °F 35 °F  
Max Temperature 31 °F 46 °F 65 °F (1979)
Min Temperature 6 °F 24 °F 4 °F (1997)
Degree Days  
Heating Degree Days 46 30  
Month to date heating degree days 1068 844  
Since 1 July heating degree days 6837 6464  
Cooling Degree Days 0 0  
Month to date cooling degree days 0 0  
Year to date cooling degree days 0 0  
Moisture  
Dew Point -1 °F    
Average Humidity 48    
Maximum Humidity 69    
Minimum Humidity 27    
Precipitation  
Precipitation 0.00 in 0.09 in 1.12 in (1993)
Month to date precipitation 1.53 2.28  
Year to date precipitation 6.06 7.22  
Sea Level Pressure  
Sea Level Pressure 30.18 in    
Wind  
Wind Speed 6 mph (NW)    
Max Wind Speed 18 mph    
Max Gust Speed 23 mph    
Visibility 10 miles    
Events      
T = Trace of Precipitation, MM = Missing Value Source: NWS Daily Summary

Daily Weather History Graph

Daily Weather History Graph

Search for Another Location

Airport:

Trip Planner

Search our weather history database for the weather conditions in past years. The results will help you decide how hot, cold, wet, or windy it might be!

Date:

Astronomy

Mar. 24, 2014 Rise Set
Actual Time 6:50 AM EDT 7:11 PM EDT
Civil Twilight 6:22 AM EDT 7:40 PM EDT
Nautical Twilight 5:48 AM EDT 8:13 PM EDT
Astronomical Twilight 5:14 AM EDT 8:48 PM EDT
Moon 2:27 AM EDT (3/24) 12:24 PM EDT (3/24)
Length of Visible Light 13h 18m
Length of Day
12h 20m
Last Quarter, 43% of the Moon is Illuminated
Mar 24
Last Quarter
Mar 30
New
Apr 7
First Quarter
Apr 15
Full
Apr 22
Last Quarter

Hourly Weather History & Observations

Time (EDT) Temp. Windchill Dew Point Humidity Pressure Visibility Wind Dir Wind Speed Gust Speed Precip Events Conditions
12:53 AM 16.0 °F 6.3 °F -2.9 °F 43% 30.22 in 10.0 mi NW 6.9 mph - N/A   Clear
1:53 AM 12.0 °F - -2.0 °F 53% 30.22 in 10.0 mi Calm Calm - N/A   Clear
2:53 AM 6.1 °F - -2.0 °F 69% 30.22 in 10.0 mi Calm Calm - N/A   Clear
3:53 AM 7.0 °F 0.1 °F -2.0 °F 67% 30.22 in 10.0 mi NW 3.5 mph - N/A   Clear
4:53 AM 9.0 °F 0.6 °F -2.0 °F 61% 30.22 in 10.0 mi NNW 4.6 mph - N/A   Clear
5:53 AM 10.0 °F -1.9 °F -4.0 °F 53% 30.22 in 10.0 mi NW 8.1 mph - N/A   Clear
6:53 AM 12.0 °F 1.5 °F -4.0 °F 49% 30.23 in 10.0 mi NW 6.9 mph - N/A   Clear
7:53 AM 12.9 °F 3.8 °F -4.0 °F 47% 30.25 in 10.0 mi NNW 5.8 mph - N/A   Clear
8:53 AM 16.0 °F 8.8 °F -4.0 °F 41% 30.25 in 10.0 mi North 4.6 mph - N/A   Clear
9:53 AM 18.0 °F 6.9 °F -2.9 °F 40% 30.25 in 10.0 mi North 9.2 mph - N/A   Clear
10:53 AM 19.9 °F 7.3 °F -2.9 °F 37% 30.24 in 10.0 mi North 12.7 mph 23.0 mph N/A   Clear
11:53 AM 21.9 °F 9.2 °F 1.0 °F 40% 30.21 in 10.0 mi North 13.8 mph 23.0 mph N/A   Clear
12:53 PM 26.1 °F 20.5 °F -0.0 °F 32% 30.19 in 10.0 mi WNW 4.6 mph - N/A   Clear
1:53 PM 28.0 °F 21.7 °F -2.0 °F 27% 30.16 in 10.0 mi West 5.8 mph - N/A   Clear
2:53 PM 27.0 °F - -0.9 °F 30% 30.13 in 10.0 mi Calm Calm - N/A   Scattered Clouds
3:53 PM 28.9 °F 25.2 °F -0.0 °F 29% 30.10 in 10.0 mi Variable 3.5 mph - 0.00 in   Scattered Clouds
4:53 PM 30.0 °F 24.1 °F -0.0 °F 28% 30.08 in 10.0 mi Variable 5.8 mph - N/A   Partly Cloudy
5:53 PM 30.0 °F 21.7 °F 1.0 °F 29% 30.09 in 10.0 mi WNW 9.2 mph - N/A   Clear
6:53 PM 28.0 °F 20.0 °F -0.9 °F 29% 30.10 in 10.0 mi WNW 8.1 mph - N/A   Clear
7:53 PM 26.1 °F 17.6 °F 1.0 °F 34% 30.12 in 10.0 mi West 8.1 mph - N/A   Clear
8:53 PM 24.1 °F 15.2 °F 3.0 °F 40% 30.15 in 10.0 mi West 8.1 mph - N/A   Clear
9:53 PM 21.9 °F 11.7 °F 1.9 °F 42% 30.16 in 10.0 mi West 9.2 mph 19.6 mph N/A   Clear
10:53 PM 21.9 °F - 3.0 °F 44% 30.17 in 10.0 mi Calm Calm - N/A   Clear
11:53 PM 15.1 °F - 3.0 °F 59% 30.17 in 10.0 mi Calm Calm - N/A   Clear